Date String (YYYY-MM-DD hh:mm:ss) UTC,Instrument flags,Ambient pressure (hPa),Sample flow (lpm),Bypass flow (lpm),Sample temperature (°C),Ambient temperature (°C),ASC tube jacket temperature (°C),LED temperature (°C),Box temperature (°C),Sample RH (%),Span deviation,Mass concentration (μg/m³),Mass concentration (μg/m³),Mass concentration (μg/m³)
DateTimeUTC,F1_M11,P_M11,Q1_M11,Q2_M11,T1_M11,T2_M11,T3_M11,T4_M11,T5_M11,U1_M11,ZSPAN_M11,X0_M11,X2_M11,X1_M11
2022-05-26 04:00:00,,0824.5,4.99,0.00,30.1,29.2,00.0,38.9,32.0,11.2,0000.0,0004.15,0002.48,0002.02
2022-05-26 04:01:00,,0824.6,5.00,0.00,30.1,29.3,00.0,39.0,32.0,11.2,0000.0,0004.15,0002.47,0001.99
2022-05-26 04:02:00,,0824.6,4.99,0.00,30.1,29.3,00.0,39.0,32.0,11.2,0000.0,0004.19,0002.48,0001.98
2022-05-26 04:03:00,,0824.6,5.00,0.00,30.2,29.3,00.0,39.0,32.0,11.2,0000.0,0004.23,0002.48,0001.98
2022-05-26 04:04:00,,0824.6,5.01,0.00,30.2,29.3,00.0,39.0,32.0,11.3,0000.0,0004.71,0002.48,0001.98
2022-05-26 04:05:00,,0824.6,5.00,0.00,30.2,28.5,00.0,38.9,31.9,11.4,0000.0,0005.42,0002.49,0001.98
2022-05-26 04:06:00,,0824.6,5.00,0.00,30.1,27.6,00.0,38.8,31.6,11.6,0000.0,0005.40,0002.49,0001.98
2022-05-26 04:07:00,,0824.7,4.99,0.00,29.9,27.3,00.0,38.8,31.5,11.7,0000.0,0005.10,0002.50,0001.99
2022-05-26 04:08:00,,0824.7,5.01,0.00,29.8,27.4,00.0,38.8,31.4,11.7,0000.0,0004.77,0002.46,0001.98
2022-05-26 04:09:00,,0824.6,4.99,0.00,29.8,27.5,00.0,38.8,31.4,11.6,0000.0,0004.51,0002.38,0001.96
2022-05-26 04:10:00,,0824.6,5.02,0.00,29.7,27.6,00.0,38.7,31.4,11.6,0000.0,0004.56,0002.41,0001.96
2022-05-26 04:11:00,,0824.7,4.99,0.00,29.7,27.8,00.0,38.7,31.4,11.6,0000.0,0004.70,0002.47,0001.98
2022-05-26 04:12:00,,0824.6,5.00,0.00,29.7,27.9,00.0,38.7,31.4,11.4,0000.0,0004.78,0002.50,0001.99
2022-05-26 04:13:00,,0824.6,5.00,0.00,29.7,28.1,00.0,38.7,31.5,11.5,0000.0,0004.77,0002.49,0002.00
2022-05-26 04:14:00,,0824.6,5.01,0.00,29.7,28.2,00.0,38.7,31.5,11.5,0000.0,0004.75,0002.47,0002.00
2022-05-26 04:15:00,,0824.6,4.99,0.00,29.7,28.3,00.0,38.7,31.5,11.4,0000.0,0004.52,0002.48,0002.01
2022-05-26 04:16:00,,0824.6,5.00,0.00,29.7,28.4,00.0,38.7,31.5,11.5,0000.0,0003.50,0002.48,0002.03
2022-05-26 04:17:00,,0824.6,5.01,0.00,29.7,28.5,00.0,38.7,31.5,11.6,0000.0,0003.46,0002.46,0002.03
2022-05-26 04:18:00,,0824.6,5.00,0.00,29.7,28.5,00.0,38.7,31.6,11.7,0000.0,0003.58,0002.50,0002.03
2022-05-26 04:19:00,,0824.6,4.98,0.00,29.8,28.6,00.0,38.7,31.6,11.5,0000.0,0003.65,0002.51,0002.03
2022-05-26 04:20:00,,0824.6,5.00,0.00,29.8,28.6,00.0,38.7,31.6,11.5,0000.0,0003.75,0002.55,0002.04
2022-05-26 04:21:00,,0824.6,5.01,0.00,29.8,28.7,00.0,38.7,31.6,11.7,0000.0,0003.76,0002.57,0002.04
2022-05-26 04:22:00,,0824.6,4.99,0.00,29.8,28.7,00.0,38.7,31.6,12.1,0000.0,0003.76,0002.59,0002.05
2022-05-26 04:23:00,,0824.7,5.00,0.00,29.8,28.7,00.0,38.7,31.7,12.1,0000.0,0003.75,0002.60,0002.07
2022-05-26 04:24:00,,0824.6,4.99,0.00,29.8,28.8,00.0,38.7,31.7,12.3,0000.0,0003.71,0002.60,0002.09
2022-05-26 04:25:00,,0824.6,5.01,0.00,29.8,28.8,00.0,38.7,31.7,12.4,0000.0,0003.80,0002.64,0002.12
2022-05-26 04:26:00,,0824.6,5.01,0.00,29.8,28.8,00.0,38.7,31.7,12.8,0000.0,0004.17,0002.72,0002.13
2022-05-26 04:27:00,,0824.6,5.00,0.00,29.9,28.8,00.0,38.7,31.7,12.6,0000.0,0004.42,0002.79,0002.13
2022-05-26 04:28:00,,0824.6,4.99,0.00,29.9,28.9,00.0,38.7,31.7,12.2,0000.0,0004.60,0002.84,0002.16
2022-05-26 04:29:00,,0824.6,5.00,0.00,29.9,28.9,00.0,38.7,31.7,12.0,0000.0,0004.54,0002.82,0002.18
2022-05-26 04:30:00,,0824.6,5.01,0.00,29.9,28.9,00.0,38.8,31.7,12.1,0000.0,0004.39,0002.81,0002.20
2022-05-26 04:31:00,,0824.6,4.99,0.00,29.9,28.9,00.0,38.8,31.8,12.0,0000.0,0004.45,0002.85,0002.23
2022-05-26 04:32:00,,0824.7,5.01,0.00,29.9,28.9,00.0,38.8,31.8,11.9,0000.0,0004.47,0002.84,0002.25
2022-05-26 04:33:00,,0824.7,4.99,0.00,29.9,28.9,00.0,38.8,31.8,11.9,0000.0,0004.49,0002.81,0002.25
2022-05-26 04:34:00,,0824.8,5.01,0.00,29.9,28.9,00.0,38.8,31.8,12.0,0000.0,0004.68,0002.85,0002.26
2022-05-26 04:35:00,,0824.9,5.01,0.00,29.9,28.9,00.0,38.8,31.7,12.0,0000.0,0004.94,0002.88,0002.26
2022-05-26 04:36:00,,0824.9,5.00,0.00,29.9,28.9,00.0,38.8,31.8,11.9,0000.0,0005.15,0002.92,0002.26
2022-05-26 04:37:00,,0825.1,5.00,0.00,30.0,29.0,00.0,38.8,31.8,12.3,0000.0,0005.09,0002.90,0002.26
2022-05-26 04:38:00,,0825.2,5.01,0.00,30.0,29.0,00.0,38.8,31.8,14.6,0000.0,0006.31,0002.90,0002.29
2022-05-26 04:39:00,,0825.2,5.01,0.00,30.0,29.0,00.0,38.8,31.9,15.3,0000.0,0007.26,0003.04,0002.32
2022-05-26 04:40:00,,0825.2,5.00,0.00,30.0,29.0,00.0,38.9,31.9,15.6,0000.0,0007.72,0003.13,0002.35
2022-05-26 04:41:00,,0825.3,5.00,0.00,30.0,29.0,00.0,38.9,31.9,15.5,0000.0,0008.12,0003.22,0002.39
2022-05-26 04:42:00,,0825.2,5.00,0.00,30.0,29.0,00.0,38.9,31.9,15.5,0000.0,0008.27,0003.29,0002.40
2022-05-26 04:43:00,,0825.2,5.00,0.00,30.0,29.1,00.0,38.9,31.9,15.5,0000.0,0008.79,0003.40,0002.43
2022-05-26 04:44:00,,0825.2,5.00,0.00,30.0,29.1,00.0,38.9,31.9,15.5,0000.0,0009.75,0003.47,0002.45
2022-05-26 04:45:00,,0825.3,4.99,0.00,30.0,29.1,00.0,38.9,31.9,15.5,0000.0,0010.15,0003.49,0002.48
2022-05-26 04:46:00,,0825.2,4.99,0.00,30.1,29.1,00.0,38.9,31.9,15.6,0000.0,0010.31,0003.56,0002.51
2022-05-26 04:47:00,,0825.2,5.01,0.00,30.1,29.1,00.0,38.9,31.9,15.5,0000.0,0010.76,0003.61,0002.54
2022-05-26 04:48:00,,0825.3,5.01,0.00,30.1,29.1,00.0,38.9,31.9,14.9,0000.0,0011.10,0003.64,0002.59
2022-05-26 04:49:00,,0825.3,5.00,0.00,30.1,29.1,00.0,38.9,31.9,14.3,0000.0,0011.20,0003.68,0002.61
2022-05-26 04:50:00,,0825.2,4.99,0.00,30.1,29.2,00.0,39.0,31.9,15.0,0000.0,0012.37,0003.65,0002.61
2022-05-26 04:51:00,,0825.3,5.01,0.00,30.1,29.2,00.0,39.0,32.0,15.4,0000.0,0012.22,0003.64,0002.61
2022-05-26 04:52:00,,0825.3,5.00,0.00,30.1,29.2,00.0,39.0,32.0,15.6,0000.0,0012.16,0003.65,0002.61
2022-05-26 04:53:00,,0825.3,4.99,0.00,30.1,29.2,00.0,39.0,32.0,15.2,0000.0,0012.63,0003.66,0002.62
2022-05-26 04:54:00,,0825.3,5.00,0.00,30.1,29.2,00.0,39.0,32.0,14.9,0000.0,0012.59,0003.66,0002.65
2022-05-26 04:55:00,,0825.3,5.00,0.00,30.1,29.2,00.0,39.0,32.0,14.7,0000.0,0011.91,0003.66,0002.65
2022-05-26 04:56:00,,0825.3,5.00,0.00,30.2,29.2,00.0,39.0,32.0,14.0,0000.0,0011.82,0003.70,0002.64
2022-05-26 04:57:00,,0825.3,5.00,0.00,30.2,29.2,00.0,39.0,32.0,13.2,0000.0,0012.42,0003.65,0002.61
2022-05-26 04:58:00,,0825.3,4.99,0.00,30.2,29.2,00.0,39.0,32.0,12.9,0000.0,0012.49,0003.59,0002.55
2022-05-26 04:59:00,,0825.3,5.00,0.00,30.2,29.2,00.0,39.1,32.0,13.1,0000.0,0012.27,0003.56,0002.51
